Find Starlink 11646

NORAD ID: 63186 Int'l Des: 2025-048 Owner: SPXS Country: US Constellation: starlink operational
LEOCIRCULAR

Live Position

Loading 3D Globe...

About Starlink 11646

Description loading...

Upcoming Passes

Passes for default location (London). Set your location on the main map for personalized predictions.

Altitude History

Loading altitude history...

Two-Line Element Set

1 63186U 25048D 26139.70228834 .00151370 00000-0 11612-2 0 9998
2 63186 42.9997 251.4952 0000888 277.2193 82.8574 15.70852335 69692
Epoch: May 19, 2026 • Age: 15 hours

Current Status

Altitude 368.6 km
Velocity 7.69 km/s
Sub-Earth Point -43.12°S, 166.86°E
Launch Date Mar 13, 2025
Age 1.1 years
Type internet

Technical Details

Classification Payload
Mass 960.00 kg
Dry Mass 910.00 kg
Total Mass 960.00 kg
Length 0.30 m
Diameter 4.10 m
Span 29.00 m
Shape Box + pan
Manufacturer SPXS
Bus Type Starlink V2MD
Phase Status In Orbit
Owner/State SPXS/US

Most Searched